Previsão horária em Jumri Tilaiya

Hoje, 24 Junho, Quinta-feira

Tempo Temperatura Precipitação Vento Pressão Humidade
00:00 +30°C° 0 mm 3 m/s 720 mmHg 72%
01:00 +30°C° 0 mm 3 m/s 719 mmHg 74%
02:00 +29°C° 0 mm 3 m/s 719 mmHg 75%
03:00 +29°C° 0 mm 3 m/s 719 mmHg 76%
04:00 +29°C° 0.1 mm 3 m/s 719 mmHg 78%
05:00 +28°C° 0.1 mm 3 m/s 719 mmHg 80%
06:00 +28°C° 0.1 mm 3 m/s 719 mmHg 82%
07:00 +29°C° 0.1 mm 3 m/s 719 mmHg 77%
08:00 +30°C° 0.1 mm 3 m/s 719 mmHg 71%
09:00 +31°C° 0.1 mm 3 m/s 720 mmHg 66%
10:00 +32°C° 1.2 mm 2 m/s 720 mmHg 63%
11:00 +34°C° 1.2 mm 2 m/s 719 mmHg 59%
12:00 +35°C° 1.2 mm 2 m/s 719 mmHg 56%
13:00 +35°C° 0.7 mm 2 m/s 719 mmHg 55%
14:00 +34°C° 0.7 mm 1 m/s 718 mmHg 55%
15:00 +34°C° 0.7 mm 1 m/s 718 mmHg 54%
16:00 +34°C° 0.5 mm 1 m/s 717 mmHg 56%
17:00 +34°C° 0.5 mm 1 m/s 717 mmHg 59%
18:00 +33°C° 0.5 mm 1 m/s 717 mmHg 61%
19:00 +33°C° 0.5 mm 1 m/s 717 mmHg 64%
20:00 +32°C° 0.5 mm 1 m/s 718 mmHg 66%
21:00 +31°C° 0.5 mm 2 m/s 718 mmHg 69%
22:00 +31°C° 0.3 mm 2 m/s 718 mmHg 70%
23:00 +31°C° 0.3 mm 2 m/s 718 mmHg 72%

Amanhã, 25 Junho, Sexta-feira

Tempo Temperatura Precipitação Vento Pressão Humidade
00:00 +30°C° 0.3 mm 2 m/s 718 mmHg 74%
01:00 +29°C° 1.4 mm 2 m/s 718 mmHg 78%
02:00 +29°C° 1.4 mm 2 m/s 717 mmHg 82%
03:00 +28°C° 1.4 mm 3 m/s 717 mmHg 86%
04:00 +28°C° 0.6 mm 2 m/s 717 mmHg 85%
05:00 +28°C° 0.6 mm 2 m/s 717 mmHg 84%
06:00 +28°C° 0.6 mm 1 m/s 717 mmHg 83%
07:00 +29°C° 0.4 mm 1 m/s 718 mmHg 78%
08:00 +31°C° 0.4 mm 1 m/s 718 mmHg 72%
09:00 +32°C° 0.4 mm 1 m/s 719 mmHg 66%
10:00 +33°C° 0.9 mm 1 m/s 718 mmHg 63%
11:00 +33°C° 0.9 mm 1 m/s 718 mmHg 60%
12:00 +35°C° 0.9 mm 2 m/s 718 mmHg 57%
13:00 +34°C° 1.5 mm 1 m/s 717 mmHg 58%
14:00 +34°C° 1.5 mm 1 m/s 717 mmHg 58%
15:00 +34°C° 1.5 mm 1 m/s 717 mmHg 59%
16:00 +33°C° 0.6 mm 1 m/s 717 mmHg 62%
17:00 +33°C° 0.6 mm 1 m/s 716 mmHg 65%
18:00 +31°C° 0.6 mm 0 m/s 716 mmHg 67%
19:00 +32°C° 1 mm 1 m/s 717 mmHg 70%
20:00 +31°C° 1 mm 1 m/s 717 mmHg 73%
21:00 +30°C° 1 mm 2 m/s 717 mmHg 75%
22:00 +30°C° 1.3 mm 2 m/s 717 mmHg 77%
23:00 +29°C° 1.3 mm 2 m/s 718 mmHg 79%

Depois de amanhã, 26 Junho, Sábado

Tempo Temperatura Precipitação Vento Pressão Humidade
00:00 +29°C° 1.3 mm 2 m/s 718 mmHg 81%
01:00 +29°C° 0.1 mm 1 m/s 717 mmHg 83%
02:00 +28°C° 0.1 mm 1 m/s 717 mmHg 85%
03:00 +28°C° 0.1 mm 1 m/s 717 mmHg 87%
04:00 +28°C° 0 mm 1 m/s 717 mmHg 86%
05:00 +28°C° 0 mm 1 m/s 717 mmHg 86%
06:00 +28°C° 0 mm 1 m/s 717 mmHg 85%
07:00 +29°C° 2.3 mm 1 m/s 718 mmHg 80%
08:00 +30°C° 2.3 mm 1 m/s 719 mmHg 74%
09:00 +32°C° 2.3 mm 2 m/s 719 mmHg 69%
10:00 +32°C° 1.7 mm 2 m/s 719 mmHg 65%
11:00 +34°C° 1.7 mm 2 m/s 719 mmHg 61%
12:00 +35°C° 1.7 mm 2 m/s 719 mmHg 58%
13:00 +35°C° 1.7 mm 2 m/s 719 mmHg 58%
14:00 +35°C° 1.7 mm 2 m/s 718 mmHg 59%
15:00 +35°C° 1.7 mm 2 m/s 718 mmHg 59%
16:00 +34°C° 1.2 mm 2 m/s 718 mmHg 62%
17:00 +34°C° 1.2 mm 2 m/s 718 mmHg 65%
18:00 +33°C° 1.2 mm 3 m/s 718 mmHg 68%
19:00 +31°C° 1.7 mm 3 m/s 718 mmHg 72%
20:00 +31°C° 1.7 mm 3 m/s 718 mmHg 75%
21:00 +30°C° 1.7 mm 3 m/s 719 mmHg 79%
22:00 +29°C° 1.2 mm 3 m/s 719 mmHg 80%
23:00 +29°C° 1.2 mm 3 m/s 719 mmHg 81%

27 Junho, Domingo

Tempo Temperatura Precipitação Vento Pressão Humidade
00:00 +29°C° 1.2 mm 3 m/s 719 mmHg 81%
01:00 +29°C° 0.8 mm 3 m/s 719 mmHg 83%
02:00 +28°C° 0.8 mm 3 m/s 719 mmHg 84%
03:00 +28°C° 0.8 mm 3 m/s 719 mmHg 85%
04:00 +28°C° 0.4 mm 3 m/s 719 mmHg 86%
05:00 +28°C° 0.4 mm 2 m/s 719 mmHg 88%
06:00 +27°C° 0.4 mm 2 m/s 720 mmHg 89%
07:00 +29°C° 0.5 mm 3 m/s 720 mmHg 84%
08:00 +30°C° 0.5 mm 3 m/s 721 mmHg 78%
09:00 +31°C° 0.5 mm 3 m/s 721 mmHg 73%
10:00 +33°C° 0.6 mm 3 m/s 721 mmHg 69%
11:00 +34°C° 0.6 mm 3 m/s 721 mmHg 65%
12:00 +35°C° 0.6 mm 3 m/s 721 mmHg 60%
13:00 +35°C° 0.1 mm 3 m/s 720 mmHg 59%
14:00 +35°C° 0.1 mm 3 m/s 720 mmHg 59%
15:00 +35°C° 0.1 mm 3 m/s 719 mmHg 58%
16:00 +34°C° 0.7 mm 3 m/s 719 mmHg 61%
17:00 +34°C° 0.7 mm 3 m/s 719 mmHg 64%
18:00 +33°C° 0.7 mm 3 m/s 719 mmHg 68%
19:00 +31°C° 0.7 mm 3 m/s 720 mmHg 70%
20:00 +31°C° 0.7 mm 3 m/s 720 mmHg 73%
21:00 +30°C° 0.7 mm 3 m/s 720 mmHg 76%
22:00 +30°C° 0.3 mm 3 m/s 720 mmHg 77%
23:00 +30°C° 0.3 mm 3 m/s 720 mmHg 79%

28 Junho, Segunda-feira

Tempo Temperatura Precipitação Vento Pressão Humidade
00:00 +29°C° 0.3 mm 3 m/s 720 mmHg 80%
01:00 +29°C° 0.4 mm 3 m/s 720 mmHg 81%
02:00 +29°C° 0.4 mm 3 m/s 719 mmHg 83%
03:00 +28°C° 0.4 mm 2 m/s 719 mmHg 84%
04:00 +28°C° 0.1 mm 2 m/s 719 mmHg 85%
05:00 +28°C° 0.1 mm 3 m/s 719 mmHg 85%
06:00 +28°C° 0.1 mm 3 m/s 720 mmHg 86%
07:00 +29°C° 0 mm 3 m/s 720 mmHg 80%
08:00 +31°C° 0 mm 3 m/s 720 mmHg 74%
09:00 +33°C° 0 mm 3 m/s 720 mmHg 68%
10:00 +34°C° 0.2 mm 3 m/s 720 mmHg 64%
11:00 +35°C° 0.2 mm 3 m/s 720 mmHg 59%
12:00 +36°C° 0.2 mm 2 m/s 720 mmHg 55%
13:00 +36°C° 0.3 mm 2 m/s 719 mmHg 55%
14:00 +36°C° 0.3 mm 2 m/s 719 mmHg 56%
15:00 +36°C° 0.3 mm 2 m/s 718 mmHg 56%
16:00 +35°C° 0.4 mm 2 m/s 718 mmHg 59%
17:00 +35°C° 0.4 mm 2 m/s 718 mmHg 62%
18:00 +34°C° 0.4 mm 2 m/s 718 mmHg 65%
19:00 +33°C° 0.1 mm 3 m/s 719 mmHg 68%
20:00 +33°C° 0.1 mm 3 m/s 719 mmHg 70%
21:00 +31°C° 0.1 mm 3 m/s 719 mmHg 72%
22:00 +31°C° 0 mm 3 m/s 719 mmHg 73%
23:00 +30°C° 0 mm 3 m/s 719 mmHg 74%

29 Junho, Terça-feira

Tempo Temperatura Precipitação Vento Pressão Humidade
00:00 +30°C° 0 mm 2 m/s 719 mmHg 76%
01:00 +30°C° 0 mm 2 m/s 718 mmHg 77%
02:00 +30°C° 0 mm 2 m/s 718 mmHg 77%
03:00 +30°C° 0 mm 2 m/s 717 mmHg 78%
04:00 +29°C° 0 mm 2 m/s 717 mmHg 78%
05:00 +29°C° 0 mm 2 m/s 717 mmHg 78%
06:00 +29°C° 0 mm 2 m/s 718 mmHg 78%
07:00 +31°C° 0.1 mm 2 m/s 718 mmHg 72%
08:00 +32°C° 0.1 mm 2 m/s 719 mmHg 67%
09:00 +34°C° 0.1 mm 2 m/s 719 mmHg 62%
10:00 +35°C° 0.1 mm 2 m/s 719 mmHg 58%
11:00 +36°C° 0.1 mm 2 m/s 719 mmHg 53%
12:00 +38°C° 0.1 mm 2 m/s 719 mmHg 49%
13:00 +38°C° 0.1 mm 2 m/s 719 mmHg 49%
14:00 +37°C° 0.1 mm 1 m/s 718 mmHg 49%
15:00 +37°C° 0.1 mm 1 m/s 718 mmHg 49%
16:00 +35°C° 0.1 mm 1 m/s 717 mmHg 54%
17:00 +34°C° 0.1 mm 1 m/s 717 mmHg 60%
18:00 +34°C° 0.1 mm 2 m/s 716 mmHg 65%
19:00 +34°C° 0.2 mm 2 m/s 716 mmHg 67%
20:00 +33°C° 0.2 mm 3 m/s 716 mmHg 70%
21:00 +31°C° 0.2 mm 3 m/s 717 mmHg 72%
22:00 +31°C° 0 mm 3 m/s 717 mmHg 74%
23:00 +30°C° 0 mm 4 m/s 717 mmHg 76%
Mostrar mais

Necessitamos do seu Consentimento

A Meteoprog e os seus Fornecedores de Serviços podem armazenar e aceder a dados pessoais como cookies, identificadores do dispositivo ou outras tecnologias semelhantes existentes no seu dispositivo e processar estes dados para personalizar conteúdos e anúncios, assim como funcionalidades nas redes sociais e análise de tráfego.

  • Armazenar e/ou aceder a informações no seu dispositivo

    Os cookies, identificadores do dispositivo ou outras informações podem ser armazenados ou acedidos no seu dispositivo, para os fins acima indicados.

  • Anúncios e conteúdos personalizados, medição de anúncios e conteúdos, dados sobre o público-alvo e desenvolvimento de produtos

    Os anúncios e os conteúdos podem ser personalizados com base num perfil. Podem ser adicionados dados adicionais para uma maior personalização dos anúncios e dos conteúdos. A eficácia dos anúncios e dos conteúdos pode ser medida. Podem ser obtidas informações sobre o público que visualizou os anúncios e os conteúdos. Estes dados podem ser usados para desenvolver ou melhorar sistemas, softwares ou a experiência do utilizador.

Ao clicar em "Eu concordo”, permitirá o uso de cookies, identificadores do dispositivo e web beacons mencionados ou outras tecnologias semelhantes. As configurações do navegador do seu dispositivo podem ser alteradas.

Para certos fins, podem ser invocados interesses legítimos ao invés de consentimento. Pode ler mais informação sobre este assunto na nossa Política de Privacidade e Cookies.